Regional Weather Roundup
Issued by NWS Green Bay, WI

Home | Current Version | Previous Version | Text Only | Print | Product List | Glossary On
Versions: 1 2 3 4 5 6 7 8 9 10 11 12 13 14 15 16 17 18 19 20 21 22 23 24 25 26 27 28 29 30 31 32 33 34 35 36 37 38 39 40 41 42 43 44 45 46 47 48 49 50
000
ASUS43 KGRB 240211
RWRGRB

NORTH-CENTRAL AND NORTHEAST WISCONSIN REGIONAL WEATHER ROUNDUP
NATIONAL WEATHER SERVICE GREEN BAY WI
900 PM CDT MON OCT 23 2017

WIZ005-009-010>012-018-019-240300-
NORTH CENTRAL WISCONSIN

CITY           SKY/WX    TMP DP  RH WIND       PRES   REMARKS
IRONWOOD       LGT RAIN  49  44  83 NW12G23   29.71R
MANITOWISH WTR DRIZZLE   48  48 100 NW13      29.66S
ARBOR VITAE    DRIZZLE   52  49  90 NW9       29.65S
EAGLE RIVER    LGT RAIN  47  46  97 N5        29.63F
LAND O LAKES   LGT RAIN  50  42  74 N5        29.66S
RHINELANDER    LGT RAIN  47  47 100 CALM      29.64F
PHILLIPS       LGT RAIN  46  46  99 NW6       29.69S
ANTIGO         DRIZZLE   47  43  87 NW7       29.62F
TOMAHAWK       DRIZZLE   47  45  91 NW8G16    29.66R
MERRILL        LGT RAIN  49  46  91 NW8       29.64F
$$

WIZ013-073-240300-
NORTHEAST WISCONSIN

CITY           SKY/WX    TMP DP  RH WIND       PRES   REMARKS
IRON MOUNTAIN  CLOUDY    45  40  82 CALM      29.60F
MARINETTE      CLOUDY    48  46  93 N5        29.60F
OCONTO         CLOUDY    47  46  96 CALM      29.59F
$$

WIZ017-030-035>037-045-240300-
CENTRAL WISCONSIN

CITY           SKY/WX    TMP DP  RH WIND       PRES   REMARKS
MEDFORD        DRIZZLE   47  45  93 NW14G21   29.66S
WAUSAU         LGT RAIN  48  46  93 N3        29.61F
MOSINEE        DRIZZLE   48  46  93 NW7       29.64F
MARSHFIELD     LGT RAIN  49  45  86 NW16      29.65S
WISC RAPIDS    LGT RAIN  50  47  89 NW13      29.65F
STEVENS POINT  LGT RAIN  47  46  98 W5        29.64F
WAUPACA        LGT RAIN  51  48  92 W3        29.62F
SHAWANO        CLOUDY    49  47  90 CALM      29.61F
CLINTONVILLE   NOT AVBL
WAUTOMA        LGT RAIN N/A N/A N/A NW10      29.63F
$$

WIZ038-039-048-051-240300-
FOX VALLEY

CITY           SKY/WX    TMP DP  RH WIND       PRES   REMARKS
NWS GREEN BAY  CLOUDY    49  48  97 W6        29.60F
APPLETON       MOCLDY    48  43  81 W5        29.59F
OSHKOSH        CLOUDY    50  45  83 CALM      29.60F
FOND DU LAC    CLOUDY    49  45  86 CALM      29.60F
$$

WIZ022-050-052-240300-
EAST CENTRAL WISCONSIN

CITY           SKY/WX    TMP DP  RH WIND       PRES   REMARKS
EPHRAIM        CLOUDY    49  43  78 N5        29.58F
WASHINGTON ISL CLOUDY    50  45  82 N6        29.59F
STURGEON BAY   CLOUDY    48  46  93 CALM      29.59F
MANITOWOC      CLOUDY    49  46  90 NW3       29.59
SHEBOYGAN      CLOUDY    48  47  96 CALM      29.59F
$$

LMZ563-521-522-541>543-240300-
LAKESHORE

STATION/POSITION TIME  TEMP    WIND        PRES    VSBY  WAVE
                       AIR SEA DIR/SP/G                  HT/PER
                 (UTC) (F)     (DEG/KT/KT) (MB)    (MI)  (FT/S)
SHEBOYGAN LKSHOR 0200   51     270/  5/  5 1002.1F
KEWAUNEE LKSHORE 0148   49                 1001.4F
NORTHPORT PIER   0140   53     340/  9/ 11 1002.4F
N MID LAKE BUOY  0150   54 57   20/ 10/ 12 1002.0F         1/ 3
S GREEN BAY BUOY 0200   53 58  360/  6/  8 1002.2
SISTER BAY LKSHO 0204   52      30/  5/  7   N/A
MENOMINEE LKSHOR 0148   51                 1002.0F
$$




USA.gov is the U.S. government's official web portal to all federal, state and local government web resources and services.